(234785) = 1995 CA10 = 2002 PS188 = 2006 KQ128 = 2007 RD326

Discovered at Palomar on 2002-08-08 by NEAT.

Orbit

Orbit type: Main Belt

Note: WebGL enabled browser required.

epoch2024-03-31.0
epoch JD2460400.5
perihelion date2023-05-24.38422
perihelion JD2460088.88422
argument of perihelion (°)8.77619
ascending node (°)52.61527
inclination (°)2.83334
eccentricity0.0162680
perihelion distance (AU)2.8298375
Tisserand w.r.t. Jupiter3.3
ΔV w.r.t. Earth (km/sec)10.5
semimajor axis (AU)2.8766347
mean anomaly (°)62.95007
mean daily motion (°/day)0.20201180
aphelion distance (AU)2.923
period (years)4.88
P-vector [x]0.47897088
P-vector [y]0.80236426
P-vector [z]0.35608774
Q-vector [x]-0.87695167
Q-vector [y]0.41920589
Q-vector [z]0.23499402
absolute magnitude16.93
phase slope0.15
uncertainty0
referenceMPEC 2024-C163
observations used194
oppositions15
arc length (days)10601
first opposition used1995
last opposition used2024
residual rms (arc-secs)0.82
perturbers coarse indicatorM-v
perturbers precise indicator003Ek
first observation date used1995-02-04.0
last observation date used2024-02-13.0
computer nameMPCLINUX
JD of orbit computation2456670.728894
perihelion JD uncertainty (days)1.3029E-03
argument of perihelion uncertainty (°)3.2675E-04
ascending node uncertainty (°)1.8607E-04
inclination uncertainty (°)7.8862E-06
eccentricity uncertainty 7.7133E-08
perihelion distance uncertainty (AU)2.3208E-07
Minimum Orbit Intersection Distances (in AU)
for orbit epoch: 2460200.5, reference: E2024-CG3
Mercury2.45511
Venus2.10806
Earth1.84011
Mars1.20816
Jupiter2.10395
Saturn6.22148
Uranus15.5584
Neptune27.0002

Observations

204 total observations over interval: 1995 02 04.21561 – 2024 02 13.266565
These data are available for download (format description).

Date (UT) J2000 RA J2000 Dec Magn Location Ref
1995 02 04.21561 09 31 32.30 +19 12 07.0   691 – Steward Observatory, Kitt Peak-Spacewatch MPC 24854
1995 02 04.24005 09 31 30.95 +19 12 13.5   691 – Steward Observatory, Kitt Peak-Spacewatch MPC 24854
1995 02 04.26437 09 31 29.66 +19 12 20.2 20.8 V 691 – Steward Observatory, Kitt Peak-Spacewatch MPC 24854
1995 02 05.20017 09 30 40.30 +19 16 26.6 20.4 V 691 – Steward Observatory, Kitt Peak-Spacewatch MPC 24854
1995 02 05.22466 09 30 38.97 +19 16 32.8   691 – Steward Observatory, Kitt Peak-Spacewatch MPC 24854
1995 02 05.24903 09 30 37.61 +19 16 39.5   691 – Steward Observatory, Kitt Peak-Spacewatch MPC 24854
2001 05 23.17570 15 45 16.74 -20 22 33.0 20.0 R 807 – Cerro Tololo Observatory, La Serena MPS 279580
2001 05 23.23965 15 45 13.23 -20 22 25.6   807 – Cerro Tololo Observatory, La Serena MPS 279580
2002 08 08.46278 22 26 50.33 -14 20 12.1 21.2 R 644 – Palomar Mountain/NEAT MPS 279580
2002 08 08.46394 22 26 50.29 -14 20 12.8 21.2 R 644 – Palomar Mountain/NEAT MPS 279580
2002 08 18.42792 22 19 17.59 -15 05 51.6   644 – Palomar Mountain/NEAT MPS 279580
2002 08 18.43882 22 19 17.05 -15 05 54.6 20.7 R 644 – Palomar Mountain/NEAT MPS 279580
2002 08 18.44918 22 19 16.54 -15 05 57.7 20.9 R 644 – Palomar Mountain/NEAT MPS 279580
2002 08 28.24700 22 11 17.66 -15 48 50.5   644 – Palomar Mountain/NEAT MPS 279580
2002 08 28.26845 22 11 16.54 -15 48 55.7 20.9 R 644 – Palomar Mountain/NEAT MPS 279580
2002 08 28.29346 22 11 15.33 -15 49 01.7   644 – Palomar Mountain/NEAT MPS 279580
2002 08 30.21366 22 09 41.84 -15 56 46.4   644 – Palomar Mountain/NEAT MPS 279580
2002 08 30.27964 22 09 38.56 -15 57 02.7 20.7 R 644 – Palomar Mountain/NEAT MPS 279580
2002 08 30.34485 22 09 35.27 -15 57 18.2   644 – Palomar Mountain/NEAT MPS 279580
2003 11 19.25453 04 18 18.70 +22 09 33.1 21.4 V 691 – Steward Observatory, Kitt Peak-Spacewatch MPS 279580
2003 11 19.28280 04 18 17.11 +22 09 31.4 21.3 V 691 – Steward Observatory, Kitt Peak-Spacewatch MPS 279580
2003 11 19.31028 04 18 15.54 +22 09 29.5 21.5 V 691 – Steward Observatory, Kitt Peak-Spacewatch MPS 279580
2005 02 09.35750 11 03 57.28 +10 26 43.3 21.2 V 691 – Steward Observatory, Kitt Peak-Spacewatch MPS 279580
2005 02 09.38315 11 03 56.25 +10 26 50.2 21.0 V 691 – Steward Observatory, Kitt Peak-Spacewatch MPS 279580
2005 02 09.40847 11 03 55.22 +10 26 57.1 20.9 V 691 – Steward Observatory, Kitt Peak-Spacewatch MPS 279580
2006 05 25.41185 16 37 49.61 -23 17 18.4 21.0 R 568 – Maunakea MPS 182784
2006 05 25.45618 16 37 47.14 -23 17 16.4 20.8 R 568 – Maunakea MPS 182784
2006 05 25.49886 16 37 44.77 -23 17 14.2 20.9 R 568 – Maunakea MPS 182784
2006 05 26.48018 16 36 51.91 -23 16 25.2 20.8 R 568 – Maunakea MPS 182784
2007 09 11.22665 22 49 11.17 -11 56 18.7 20.9 V 691 – Steward Observatory, Kitt Peak-Spacewatch MPC 75552
2007 09 11.24427 22 49 10.31 -11 56 23.3 21.0 V 691 – Steward Observatory, Kitt Peak-Spacewatch MPC 75552
2007 09 11.26191 22 49 09.39 -11 56 27.8 21.0 V 691 – Steward Observatory, Kitt Peak-Spacewatch MPC 75552
2008 11 06.43885 05 22 01.74 +24 17 38.9 21.3 V G96 – Mt. Lemmon Survey MPS 279580
2008 11 06.44325 05 22 01.59 +24 17 39.0 20.8 V G96 – Mt. Lemmon Survey MPS 279580
2008 11 06.44774 05 22 01.34 +24 17 40.0 19.6 V G96 – Mt. Lemmon Survey MPS 279580
2008 11 06.45214 05 22 01.27 +24 17 39.7 19.5 V G96 – Mt. Lemmon Survey MPS 279580
2008 11 22.25107 05 11 07.46 +24 24 10.3   691 – Steward Observatory, Kitt Peak-Spacewatch MPS 279580
2008 11 22.26875 05 11 06.56 +24 24 11.1   691 – Steward Observatory, Kitt Peak-Spacewatch MPS 279580
2008 11 22.28989 05 11 05.40 +24 24 11.1   691 – Steward Observatory, Kitt Peak-Spacewatch MPS 279580
2008 12 21.13357 04 44 03.39 +24 09 36.8 21.3 V 691 – Steward Observatory, Kitt Peak-Spacewatch MPS 279580
2008 12 21.14742 04 44 02.58 +24 09 36.1 20.9 V 691 – Steward Observatory, Kitt Peak-Spacewatch MPS 279580
2008 12 21.16103 04 44 01.93 +24 09 35.3 20.6 V 691 – Steward Observatory, Kitt Peak-Spacewatch MPS 279580
2008 12 29.08397 04 37 43.57 +24 02 00.9 20.8 V 691 – Steward Observatory, Kitt Peak-Spacewatch MPS 279580
2008 12 29.09781 04 37 42.99 +24 02 00.5 21.1 V 691 – Steward Observatory, Kitt Peak-Spacewatch MPS 279580
2008 12 29.11166 04 37 42.39 +24 01 59.6 21.4 V 691 – Steward Observatory, Kitt Peak-Spacewatch MPS 279580
2010 02 15.33534 11 47 27.54 +05 31 26.4 21.0 V 691 – Steward Observatory, Kitt Peak-Spacewatch MPS 313022
2010 02 15.35296 11 47 26.94 +05 31 30.7 21.7 V 691 – Steward Observatory, Kitt Peak-Spacewatch MPS 313022
2010 02 15.37057 11 47 26.29 +05 31 35.1 21.0 V 691 – Steward Observatory, Kitt Peak-Spacewatch MPS 313022
2010 03 14.27968 11 27 44.82 +07 38 00.9 20.8 V G96 – Mt. Lemmon Survey MPS 317844
2010 03 14.28742 11 27 44.46 +07 38 03.5 20.3 V G96 – Mt. Lemmon Survey MPS 317844
2010 03 14.29514 11 27 44.06 +07 38 05.5 20.4 V G96 – Mt. Lemmon Survey MPS 317844
2010 03 14.30286 11 27 43.66 +07 38 07.5 20.7 V G96 – Mt. Lemmon Survey MPS 317844
2010 04 11.22975 11 08 35.88 +09 10 10.0 21.5 V G96 – Mt. Lemmon Survey MPS 323370
2010 04 11.23625 11 08 35.70 +09 10 10.1 21.0 V G96 – Mt. Lemmon Survey MPS 323370
2010 04 11.24280 11 08 35.55 +09 10 11.2 21.2 V G96 – Mt. Lemmon Survey MPS 323370
2010 04 11.24940 11 08 35.37 +09 10 11.6 21.3 V G96 – Mt. Lemmon Survey MPS 323370
2010 04 11.29618 11 08 34.00 +09 10 16.2 20.8 V G96 – Mt. Lemmon Survey MPS 323370
2010 04 11.30549 11 08 33.68 +09 10 16.9 21.2 V G96 – Mt. Lemmon Survey MPS 323370
2010 04 11.31480 11 08 33.43 +09 10 17.5 20.9 V G96 – Mt. Lemmon Survey MPS 323370
2013 12 14.23345 05 51 45.23 +25 48 22.0 20.8 V G96 – Mt. Lemmon Survey MPS 493190
2013 12 14.24627 05 51 44.41 +25 48 22.2 20.2 V G96 – Mt. Lemmon Survey MPS 493190
2013 12 14.25268 05 51 44.06 +25 48 23.1 20.5 V G96 – Mt. Lemmon Survey MPS 493190
2014 01 07.23415 05 29 22.34 +25 52 17.6 20.9 V G96 – Mt. Lemmon Survey MPS 496377
2014 01 07.23936 05 29 22.02 +25 52 17.5 20.8 V G96 – Mt. Lemmon Survey MPS 496377
2014 01 07.24458 05 29 21.74 +25 52 17.3 20.9 V G96 – Mt. Lemmon Survey MPS 496377
2014 01 07.24980 05 29 21.54 +25 52 17.4 20.7 V G96 – Mt. Lemmon Survey MPS 496377
2015 01 19.59620 12 31 59.501 -00 05 18.10 21.6 w F51 – Pan-STARRS 1, Haleakala MPS 566542
2015 01 19.60968 12 31 59.722 -00 05 19.26 21.9 w F51 – Pan-STARRS 1, Haleakala MPS 566542
2015 02 18.53533 12 30 48.033 +00 22 01.93 21.4 w F51 – Pan-STARRS 1, Haleakala MPS 582681
2015 02 18.54778 12 30 47.737 +00 22 04.11 21.4 w F51 – Pan-STARRS 1, Haleakala MPS 582681
2015 02 18.56024 12 30 47.422 +00 22 06.19 21.3 w F51 – Pan-STARRS 1, Haleakala MPS 582681
2015 02 18.57269 12 30 47.092 +00 22 08.62 21.6 w F51 – Pan-STARRS 1, Haleakala MPS 582681
2015 02 19.50770 12 30 24.986 +00 24 56.16 21.5 w F51 – Pan-STARRS 1, Haleakala MPS 582681
2015 02 19.52016 12 30 24.671 +00 24 58.48 21.9 w F51 – Pan-STARRS 1, Haleakala MPS 582681
2015 02 19.53262 12 30 24.333 +00 25 00.84 21.4 w F51 – Pan-STARRS 1, Haleakala MPS 582681
2015 02 19.54508 12 30 24.017 +00 25 02.92 21.4 w F51 – Pan-STARRS 1, Haleakala MPS 582681
2015 03 16.35587 12 14 47.14 +02 07 41.5 20.8 V G96 – Mt. Lemmon Survey MPS 591452
2015 03 16.36097 12 14 46.83 +02 07 43.1 20.7 V G96 – Mt. Lemmon Survey MPS 591452
2015 03 16.36608 12 14 46.62 +02 07 44.8 20.9 V G96 – Mt. Lemmon Survey MPS 591452
2015 03 16.37118 12 14 46.42 +02 07 46.1 21.1 V G96 – Mt. Lemmon Survey MPS 591452
2015 03 23.48051 12 09 03.311 +02 41 25.07 20.8 w F51 – Pan-STARRS 1, Haleakala MPS 594651
2015 03 23.49307 12 09 02.668 +02 41 28.78 20.8 w F51 – Pan-STARRS 1, Haleakala MPS 594651
2015 03 23.50566 12 09 02.032 +02 41 32.17 20.8 w F51 – Pan-STARRS 1, Haleakala MPS 594651
2015 03 23.51822 12 09 01.402 +02 41 35.72 20.8 w F51 – Pan-STARRS 1, Haleakala MPS 594652
2015 03 24.41580 12 08 17.855 +02 45 45.30 20.6 w F51 – Pan-STARRS 1, Haleakala MPS 594652
2015 03 24.41861 12 08 17.712 +02 45 46.14 20.6 w F51 – Pan-STARRS 1, Haleakala MPS 594652
2015 03 24.43027 12 08 17.128 +02 45 49.30 20.8 w F51 – Pan-STARRS 1, Haleakala MPS 594652
2015 03 24.43308 12 08 16.973 +02 45 49.88 20.8 w F51 – Pan-STARRS 1, Haleakala MPS 594652
2015 03 24.44473 12 08 16.389 +02 45 53.30 20.8 w F51 – Pan-STARRS 1, Haleakala MPS 594652
